IRNSS-1A

Last updated on Wed Nov 05 2025 00:02:47 GMT+0000 (Coordinated Universal Time)

1 39199U 13034A 25308.40411844 .00000085 00000+0 00000+0 0 9997 2 39199 35.2216 67.1046 0021793 183.4718 353.8708 1.00270399 45116
UTC large
Height (km)
Speed (km/s)
/
Latitude / Longitude
Inclination (degrees)
Orbital Period (minutes)
Azimuth
Elevation
Range (km)
Doppler Factor

Next 0 passes for location: London (51.5072 / 0.1276)

Sorry there are no passes over London.